BAW2230 EGKK-VTBS

Flight info

Callsign BAW2230
Flight time N/A
Altitude 35000
Route ODVIK Y311 DVR UL9 KONAN UL607 FERDI DCT REMBA DCT LIRSU DCT BANUX DCT BABEG DCT KONIN DCT ERKIR DCT KFT DCT PODET DCT ZINPE DCT ETIDA DCT EKSOL/N0478F370 DCT UDROS UM859 KARDE UN644 ROLIN DCT FOQUS DCT LAGAS DCT DISKA M737 VERCA M747 BODKA P130 MAMED/N0478F390 B449 RANAH L750 MERUN G452 LKN R460 TEPAL/N0485F410 R460 CEA DCT DOPID P646 PTN N895 BETNO G463 TARED DCT WILLA WILLA1C
Aircraft B772/H-SDE2E3FGHIJ5LORVWXY/LB1D1

Departure

Time 2026-05-05 05:43
Airport London Gatwick Airport (EGKK)

Arrival

Time N/A
Airport Suvarnabhumi Airport (VTBS)
Time Latitude Longitude Altitude Speed Heading
2026-05-05 05:21 51.15541 -0.17178 219 ft 0 kts 135°
2026-05-05 05:33 51.15547 -0.17188 208 ft 4 kts 135°
2026-05-05 05:34 51.15565 -0.17217 222 ft 4 kts 135°
2026-05-05 05:34 51.15582 -0.17244 221 ft 4 kts 144°
2026-05-05 05:34 51.15601 -0.17255 218 ft 4 kts 204°
2026-05-05 05:34 51.15615 -0.17235 223 ft 2 kts 255°
2026-05-05 05:35 51.15620 -0.17200 215 ft 4 kts 256°
2026-05-05 05:35 51.15622 -0.17187 214 ft 0 kts 256°
2026-05-05 05:36 51.15608 -0.17275 220 ft 19 kts 256°
2026-05-05 05:37 51.15551 -0.17465 217 ft 19 kts 235°
2026-05-05 05:37 51.15515 -0.17671 217 ft 19 kts 258°
2026-05-05 05:37 51.15487 -0.17882 217 ft 19 kts 257°
2026-05-05 05:37 51.15459 -0.18085 215 ft 18 kts 257°
2026-05-05 05:38 51.15420 -0.18164 214 ft 9 kts 193°
2026-05-05 05:38 51.15358 -0.18135 216 ft 13 kts 166°
2026-05-05 05:38 51.15259 -0.18100 209 ft 13 kts 167°
2026-05-05 05:38 51.15199 -0.18174 218 ft 13 kts 256°
2026-05-05 05:39 51.15180 -0.18370 214 ft 24 kts 258°
2026-05-05 05:39 51.15139 -0.18663 211 ft 30 kts 257°
2026-05-05 05:39 51.15095 -0.18984 220 ft 30 kts 257°
2026-05-05 05:39 51.15051 -0.19308 215 ft 30 kts 258°
2026-05-05 05:40 51.15006 -0.19633 214 ft 30 kts 257°
2026-05-05 05:40 51.14961 -0.19957 208 ft 30 kts 258°
2026-05-05 05:40 51.14917 -0.20282 212 ft 30 kts 257°
2026-05-05 05:40 51.14872 -0.20602 216 ft 30 kts 257°
2026-05-05 05:41 51.14828 -0.20919 216 ft 26 kts 257°
2026-05-05 05:41 51.14806 -0.21083 214 ft 13 kts 257°
2026-05-05 05:41 51.14778 -0.21218 211 ft 13 kts 257°
2026-05-05 05:41 51.14753 -0.21363 216 ft 13 kts 235°
2026-05-05 05:42 51.14671 -0.21360 212 ft 13 kts 147°
2026-05-05 05:42 51.14583 -0.21313 216 ft 13 kts 161°
2026-05-05 05:42 51.14522 -0.21212 214 ft 13 kts 109°
2026-05-05 05:42 51.14536 -0.21058 215 ft 19 kts 78°
2026-05-05 05:43 51.14606 -0.20550 215 ft 83 kts 77°
2026-05-05 05:43 51.14778 -0.19287 209 ft 148 kts 77°
2026-05-05 05:43 51.15017 -0.17491 528 ft 172 kts 77°
2026-05-05 05:43 51.15270 -0.15614 1313 ft 173 kts 75°
2026-05-05 05:44 51.15533 -0.13720 1802 ft 188 kts 74°
2026-05-05 05:44 51.15834 -0.11571 2030 ft 209 kts 74°
2026-05-05 05:44 51.16160 -0.09241 2401 ft 221 kts 74°
2026-05-05 05:44 51.16508 -0.06755 2711 ft 239 kts 74°
2026-05-05 05:45 51.16871 -0.04110 3203 ft 248 kts 76°
2026-05-05 05:45 51.16981 -0.01308 3646 ft 259 kts 88°
2026-05-05 05:45 51.16890 0.01602 4283 ft 263 kts 91°
2026-05-05 05:45 51.16792 0.04536 4898 ft 269 kts 91°
2026-05-05 05:46 51.16715 0.07488 5593 ft 267 kts 90°
2026-05-05 05:46 51.16650 0.10483 6039 ft 271 kts 90°
2026-05-05 05:46 51.16590 0.13500 6032 ft 273 kts 90°
2026-05-05 05:46 51.16537 0.16519 6050 ft 273 kts 89°
2026-05-05 05:47 51.16545 0.19564 6276 ft 273 kts 88°
2026-05-05 05:47 51.16563 0.22611 6844 ft 277 kts 89°
2026-05-05 05:47 51.16575 0.25701 7425 ft 280 kts 88°
2026-05-05 05:47 51.16582 0.28784 8014 ft 282 kts 89°
2026-05-05 05:48 51.16585 0.31930 8613 ft 284 kts 89°
2026-05-05 05:48 51.16590 0.35103 9159 ft 288 kts 89°
2026-05-05 05:48 51.16595 0.38314 9711 ft 290 kts 90°
2026-05-05 05:48 51.16597 0.41017 10156 ft 292 kts 90°
2026-05-05 05:49 51.16599 0.44267 10422 ft 305 kts 90°
2026-05-05 05:49 51.16600 0.47769 10550 ft 323 kts 90°
2026-05-05 05:49 51.16600 0.51448 10696 ft 341 kts 90°
2026-05-05 05:49 51.16599 0.55343 10848 ft 361 kts 90°
2026-05-05 05:50 51.16597 0.59423 11214 ft 373 kts 90°
2026-05-05 05:50 51.16593 0.63552 11795 ft 380 kts 90°
2026-05-05 05:50 51.16588 0.67787 12512 ft 383 kts 90°
2026-05-05 05:50 51.16581 0.72049 13259 ft 386 kts 90°
2026-05-05 05:51 51.16573 0.76345 13946 ft 389 kts 90°
2026-05-05 05:51 51.16563 0.80676 14573 ft 392 kts 90°
2026-05-05 05:51 51.16552 0.85009 15192 ft 394 kts 90°
2026-05-05 05:51 51.16538 0.89398 15794 ft 397 kts 90°
2026-05-05 05:52 51.16524 0.93824 16381 ft 400 kts 90°
2026-05-05 05:52 51.16507 0.98280 16942 ft 404 kts 91°
2026-05-05 05:52 51.16488 1.02781 17460 ft 408 kts 91°
2026-05-05 05:52 51.16468 1.07273 18058 ft 410 kts 91°
2026-05-05 05:53 51.16446 1.11827 18565 ft 413 kts 91°
2026-05-05 05:53 51.16429 1.14928 18851 ft 415 kts 91°
2026-05-05 05:53 51.16404 1.19553 19316 ft 418 kts 92°
2026-05-05 05:53 51.16377 1.24141 19777 ft 420 kts 91°
2026-05-05 05:54 51.16349 1.28812 20205 ft 423 kts 91°
2026-05-05 05:54 51.16317 1.33548 20638 ft 426 kts 91°
2026-05-05 05:54 51.16221 1.38292 21051 ft 428 kts 95°
2026-05-05 05:54 51.15999 1.43056 21436 ft 432 kts 97°
2026-05-05 05:55 51.15761 1.47770 21862 ft 434 kts 97°
2026-05-05 05:55 51.15512 1.52581 22268 ft 437 kts 96°
2026-05-05 05:55 51.15267 1.57421 22687 ft 439 kts 97°
2026-05-05 05:55 51.15023 1.62288 23103 ft 442 kts 96°
2026-05-05 05:56 51.14777 1.67200 23489 ft 445 kts 97°
2026-05-05 05:56 51.14530 1.72139 23819 ft 448 kts 97°
2026-05-05 05:56 51.14280 1.77097 24134 ft 451 kts 96°
2026-05-05 05:56 51.14029 1.82043 24438 ft 454 kts 96°
2026-05-05 05:57 51.13772 1.87072 24749 ft 457 kts 96°
2026-05-05 05:57 51.13511 1.92136 25044 ft 460 kts 96°
2026-05-05 05:57 51.13245 1.97236 25321 ft 463 kts 97°
2026-05-05 05:57 51.12976 2.02359 25637 ft 466 kts 97°
2026-05-05 05:58 51.12702 2.07512 25962 ft 468 kts 97°
2026-05-05 05:58 51.12425 2.12692 26276 ft 470 kts 97°
2026-05-05 05:58 51.12145 2.17900 26579 ft 473 kts 97°
2026-05-05 05:58 51.11865 2.23068 26865 ft 475 kts 97°
2026-05-05 05:59 51.11577 2.28337 27151 ft 478 kts 97°
2026-05-05 05:59 51.11287 2.33614 27447 ft 480 kts 97°
2026-05-05 05:59 51.10991 2.38937 27718 ft 482 kts 97°
2026-05-05 05:59 51.10693 2.44273 27977 ft 485 kts 97°
2026-05-05 06:00 51.10391 2.49634 28237 ft 487 kts 98°
2026-05-05 06:00 51.10090 2.54953 28495 ft 489 kts 98°
2026-05-05 06:00 51.09780 2.60352 28751 ft 491 kts 98°
2026-05-05 06:00 51.09344 2.65762 28979 ft 491 kts 103°
2026-05-05 06:01 51.08563 2.71041 29221 ft 490 kts 109°
2026-05-05 06:01 51.07581 2.76248 29431 ft 491 kts 110°
2026-05-05 06:01 51.06594 2.81471 29635 ft 493 kts 110°
2026-05-05 06:01 51.05612 2.86716 29756 ft 496 kts 110°
2026-05-05 06:02 51.03666 2.97262 30007 ft 503 kts 110°
2026-05-05 06:02 51.02687 3.02607 30249 ft 502 kts 110°
2026-05-05 06:02 51.01709 3.07948 30531 ft 501 kts 110°
2026-05-05 06:03 51.00734 3.13256 30820 ft 499 kts 110°
2026-05-05 06:03 50.99771 3.18478 31091 ft 498 kts 110°
2026-05-05 06:03 50.98791 3.23767 31346 ft 498 kts 110°
2026-05-05 06:03 50.97810 3.29042 31586 ft 497 kts 110°
2026-05-05 06:04 50.96826 3.34319 31773 ft 498 kts 110°
2026-05-05 06:04 50.95836 3.39613 31976 ft 499 kts 110°
2026-05-05 06:04 50.94848 3.44882 32252 ft 497 kts 110°
2026-05-05 06:04 50.93873 3.50072 32539 ft 496 kts 111°
2026-05-05 06:05 50.92888 3.55307 32829 ft 495 kts 111°
2026-05-05 06:05 50.91897 3.60550 33083 ft 494 kts 111°
2026-05-05 06:05 50.90907 3.65771 33341 ft 493 kts 111°
2026-05-05 06:05 50.89914 3.70983 33601 ft 493 kts 111°
2026-05-05 06:06 50.88934 3.76100 33870 ft 492 kts 111°
2026-05-05 06:06 50.87941 3.81281 34044 ft 492 kts 111°
2026-05-05 06:06 50.86942 3.86470 34207 ft 493 kts 111°
2026-05-05 06:06 50.85940 3.91670 34376 ft 493 kts 111°
2026-05-05 06:07 50.84935 3.96871 34568 ft 492 kts 111°
2026-05-05 06:07 50.83930 4.02057 34770 ft 492 kts 111°
2026-05-05 06:07 50.81918 4.12403 34906 ft 496 kts 111°
2026-05-05 06:08 50.79871 4.22873 34921 ft 496 kts 112°
2026-05-05 06:08 50.77857 4.33147 34924 ft 488 kts 112°
2026-05-05 06:09 50.75828 4.43398 34927 ft 487 kts 112°
2026-05-05 06:09 50.73809 4.53556 34929 ft 487 kts 112°
2026-05-05 06:10 50.71769 4.63769 34927 ft 487 kts 112°
2026-05-05 06:10 50.69719 4.73982 34902 ft 488 kts 112°
2026-05-05 06:11 50.67659 4.84201 34912 ft 489 kts 112°
2026-05-05 06:11 50.65434 4.94266 34905 ft 486 kts 120°
2026-05-05 06:12 50.62515 5.03895 34913 ft 486 kts 121°
2026-05-05 06:12 50.59575 5.13475 34892 ft 487 kts 121°
2026-05-05 06:13 50.56637 5.23131 34907 ft 489 kts 121°
2026-05-05 06:13 50.53720 5.32740 34911 ft 490 kts 121°
2026-05-05 06:14 50.50767 5.42445 34908 ft 491 kts 121°
2026-05-05 06:14 50.47807 5.52124 34906 ft 491 kts 121°
2026-05-05 06:15 50.44861 5.61719 34886 ft 489 kts 121°
2026-05-05 06:15 50.41900 5.71323 34896 ft 487 kts 121°
2026-05-05 06:16 50.38942 5.80878 34890 ft 486 kts 122°
2026-05-05 06:16 50.35996 5.90356 34896 ft 485 kts 122°
2026-05-05 06:17 50.33043 5.99821 34887 ft 485 kts 122°
2026-05-05 06:17 50.30063 6.09336 34873 ft 487 kts 122°
2026-05-05 06:18 50.27068 6.18860 34894 ft 489 kts 122°
2026-05-05 06:18 50.24053 6.28418 34886 ft 490 kts 122°
2026-05-05 06:19 50.21043 6.37926 34870 ft 491 kts 122°
2026-05-05 06:19 50.17828 6.47323 34851 ft 486 kts 129°
2026-05-05 06:20 50.13863 6.55799 34874 ft 483 kts 132°
2026-05-05 06:20 50.09845 6.64208 34892 ft 485 kts 132°
2026-05-05 06:21 50.05836 6.72665 34896 ft 485 kts 132°
2026-05-05 06:21 50.01854 6.81089 34891 ft 486 kts 132°
2026-05-05 06:22 49.97837 6.89570 34868 ft 482 kts 132°
2026-05-05 06:22 49.93909 6.97842 34889 ft 475 kts 132°
2026-05-05 06:23 49.89971 7.06090 34864 ft 475 kts 132°
2026-05-05 06:23 49.86027 7.14328 34884 ft 475 kts 132°
2026-05-05 06:24 49.82105 7.22492 34881 ft 475 kts 132°
2026-05-05 06:24 49.78145 7.30711 34877 ft 475 kts 132°
2026-05-05 06:25 49.74196 7.38886 34893 ft 476 kts 132°
2026-05-05 06:25 49.70215 7.47099 34885 ft 476 kts 132°